Home   Weather   Williamstown   Past weeks
Flag for USA

Past Weather in Williamstown, New Jersey, USA — Yesterday and Last 2 Weeks

Now
35 °F

Passing clouds.


Feels Like: 29 °F
Forecast: 51 / 29 °F
Wind: 7 mph from Southwest

Location: Philadelphia International Airport

Current Time: Dec 6, 2019 at 12:34:33 am

Latest Report: Dec 5, 2019 at 11:54 pm


Visibility: 10 mi

Pressure: 30.15 "Hg

Humidity: 56%

Dew Point: 21 °F

Location of WilliamstownLocation

Past Weather in Williamstown — Graph

°F

Williamstown Temperature Yesterday

Maximum temperature yesterday: 44 °F (at 11:54 am)
Minimum temperature yesterday: 36 °F (at 2:54 am)
Average temperature yesterday: 40 °F

High & Low Weather Summary for the Past Weeks

 TemperatureHumidityPressure
High60 °F (Nov 26, 1:54 pm)93% (Nov 24, 1:54 am)30.27 "Hg (Nov 24, 1:54 am)
Low32 °F (Nov 23, 3:54 am)26% (Nov 30, 3:54 pm)29.33 "Hg (Nov 24, 5:54 am)
Average42 °F65%29.82 "Hg
* Reported Nov 20 10:54 pm — Dec 5 10:54 pm, Williamstown. Weather by CustomWeather, © 2019

Note: Actual official high and low records may vary slightly from our data, if they occured in-between our weather recording intervals... More about our weather records

Williamstown Weather History for the Previous 24 Hours

Scroll right to see more
 ConditionsComfort  
Time TempWeatherWind HumidityBarometerVisibility
10:54 pm
Thu, Dec 5
40 °FPassing clouds.12 mph47%30.14 "Hg10 mi
9:54 pm41 °FPassing clouds.7 mph47%30.12 "Hg10 mi
8:54 pm41 °FOvercast.9 mph45%30.09 "Hg10 mi
7:54 pm42 °FOvercast.10 mph43%30.08 "Hg10 mi
6:54 pm42 °FOvercast.14 mph43%30.05 "Hg10 mi
5:54 pm43 °FOvercast.20 mph42%30.03 "Hg10 mi
4:54 pm43 °FOvercast.15 mph42%30.00 "Hg10 mi
3:54 pm43 °FOvercast.17 mph40%29.96 "Hg10 mi
2:54 pm43 °FOvercast.21 mph40%29.92 "Hg10 mi
1:54 pm44 °FPartly sunny.18 mph35%29.89 "Hg10 mi
12:54 pm43 °FPartly sunny.16 mph37%29.87 "Hg10 mi
11:54 am44 °FScattered clouds.21 mph34%29.87 "Hg10 mi
10:54 am43 °FScattered clouds.21 mph42%29.87 "Hg10 mi
9:54 am42 °FScattered clouds.18 mph51%29.86 "Hg10 mi
8:54 am39 °FScattered clouds.13 mph62%29.84 "Hg10 mi
7:54 am38 °FBroken clouds.13 mph70%29.80 "Hg10 mi
6:54 am37 °FPassing clouds.15 mph73%29.76 "Hg10 mi
5:54 am37 °FPassing clouds.14 mph73%29.72 "Hg10 mi
4:54 am36 °FOvercast.10 mph75%29.68 "Hg10 mi
3:54 am36 °FPassing clouds.9 mph79%29.66 "Hg10 mi
2:54 am36 °FPassing clouds.12 mph79%29.63 "Hg10 mi
1:54 am37 °FPartly cloudy.13 mph79%29.61 "Hg10 mi
12:54 am37 °FPassing clouds.10 mph79%29.59 "Hg10 mi
Weather by CustomWeather, © 2019

See weather overview

Advertising